Weather History for Rickenbacker, OH

Change the Weather History Date:

Friday, September 24, 2010

  Actual Average Record
Temperature  
Mean Temperature 83 °F -  
Max Temperature 94 °F 72 °F 94 °F (2010)
Min Temperature 72 °F 50 °F 35 °F (2012)
Cooling Degree Days 18    
Growing Degree Days 33 (Base 50)    
Moisture  
Dew Point 59 °F    
Average Humidity 51    
Maximum Humidity 74    
Minimum Humidity 26    
Precipitation  
Precipitation 0.00 in - - ()
Sea Level Pressure  
Sea Level Pressure 30.00 in    
Wind  
Wind Speed 12 mph (SSW)    
Max Wind Speed 31 mph    
Max Gust Speed 39 mph    
Visibility 10 miles    
Events Rain    
Averages and records for this station are not official NWS values.
T = Trace of Precipitation, MM = Missing Value Source: NWS Daily Summary

Daily Weather History Graph

Daily Weather History Graph

Search for Another Location

Airport:

Trip Planner

Search our weather history database for the weather conditions in past years. The results will help you decide how hot, cold, wet, or windy it might be!

Date:

Astronomy

Sep. 24, 2010 Rise Set
Actual Time 7:21 AM EDT 7:25 PM EDT
Civil Twilight 6:54 AM EDT 7:52 PM EDT
Nautical Twilight 6:22 AM EDT 8:23 PM EDT
Astronomical Twilight 5:50 AM EDT 8:55 PM EDT
Moon 7:40 PM EDT (9/24) 8:35 AM EDT (9/24)
Length of Visible Light 12h 58m
Length of Day
12h 04m
Full, 98% of the Moon is Illuminated
Sep 24
Full
Sep 30
Last Quarter
Oct 7
New
Oct 14
First Quarter
Oct 22
Full

Hourly Weather History & Observations

Time (EDT) Temp. Heat Index Dew Point Humidity Pressure Visibility Wind Dir Wind Speed Gust Speed Precip Events Conditions
12:15 AM 75.9 °F - 60.1 °F 58% 30.07 in 10.0 mi South 5.8 mph - N/A   Clear
12:35 AM 75.2 °F - 60.3 °F 60% 30.07 in 10.0 mi South 5.8 mph - N/A   Clear
12:55 AM 73.8 °F - 60.8 °F 64% 30.06 in 10.0 mi South 6.9 mph - N/A   Clear
1:15 AM 73.8 °F - 61.0 °F 64% 30.06 in 10.0 mi South 5.8 mph - N/A   Clear
1:35 AM 73.9 °F - 61.5 °F 65% 30.06 in 10.0 mi South 6.9 mph - N/A   Clear
1:55 AM 74.3 °F - 61.9 °F 65% 30.06 in 10.0 mi South 8.1 mph - N/A   Clear
2:15 AM 73.0 °F - 61.9 °F 68% 30.05 in 10.0 mi South 6.9 mph - N/A   Clear
2:35 AM 72.7 °F - 62.2 °F 70% 30.05 in 10.0 mi South 5.8 mph - N/A   Clear
2:55 AM 72.1 °F - 62.4 °F 71% 30.05 in 10.0 mi South 5.8 mph - N/A   Clear
3:15 AM 72.7 °F - 63.0 °F 71% 30.04 in 10.0 mi South 6.9 mph - N/A   Clear
3:35 AM 72.9 °F - 63.5 °F 72% 30.04 in 10.0 mi South 8.1 mph - N/A   Clear
3:55 AM 74.3 °F - 63.7 °F 69% 30.03 in 10.0 mi South 9.2 mph - N/A   Clear
4:15 AM 73.4 °F - 63.9 °F 72% 30.03 in 10.0 mi South 8.1 mph - N/A   Clear
4:35 AM 72.9 °F - 63.9 °F 73% 30.03 in 10.0 mi South 8.1 mph - N/A   Clear
4:55 AM 73.0 °F - 64.2 °F 74% 30.03 in 10.0 mi South 8.1 mph - N/A   Clear
5:15 AM 73.6 °F - 64.2 °F 72% 30.03 in 10.0 mi South 9.2 mph - N/A   Clear
5:35 AM 73.8 °F - 64.2 °F 72% 30.03 in 10.0 mi South 6.9 mph - N/A   Clear
6:15 AM 72.5 °F - 63.9 °F 74% 30.03 in 10.0 mi South 6.9 mph - N/A   Clear
6:35 AM 72.7 °F - 63.7 °F 73% 30.03 in 10.0 mi South 6.9 mph - N/A   Clear
6:55 AM 72.7 °F - 63.5 °F 73% 30.03 in 10.0 mi South 9.2 mph - N/A   Clear
7:15 AM 73.8 °F - 63.1 °F 69% 30.03 in 10.0 mi South 9.2 mph - N/A   Clear
7:35 AM 73.9 °F - 63.0 °F 68% 30.04 in 10.0 mi South 10.4 mph - N/A   Clear
7:55 AM 74.7 °F - 63.0 °F 67% 30.04 in 10.0 mi SSW 11.5 mph - N/A   Clear
8:15 AM 76.3 °F - 62.6 °F 62% 30.04 in 10.0 mi SSW 13.8 mph - N/A   Clear
8:35 AM 77.9 °F - 62.1 °F 58% 30.04 in 10.0 mi SSW 15.0 mph 20.7 mph N/A   Clear
8:55 AM 79.2 °F - 61.7 °F 55% 30.04 in 10.0 mi SSW 17.3 mph 21.9 mph N/A   Clear
9:15 AM 80.6 °F 81.5 °F 61.2 °F 51% 30.04 in 10.0 mi SSW 18.4 mph 29.9 mph N/A   Clear
9:35 AM 81.7 °F 82.3 °F 60.8 °F 49% 30.04 in 10.0 mi SSW 16.1 mph 24.2 mph N/A   Clear
9:55 AM 82.4 °F 82.7 °F 60.4 °F 47% 30.04 in 10.0 mi SSW 18.4 mph 25.3 mph N/A   Clear
10:15 AM 84.2 °F 84.0 °F 59.5 °F 43% 30.03 in 10.0 mi SSW 18.4 mph 25.3 mph N/A   Clear
10:35 AM 85.3 °F 84.6 °F 58.5 °F 40% 30.03 in 10.0 mi SW 18.4 mph 29.9 mph N/A   Clear
10:55 AM 86.9 °F 85.9 °F 57.6 °F 37% 30.03 in 10.0 mi SW 16.1 mph 27.6 mph N/A   Clear
11:15 AM 87.6 °F 86.1 °F 55.8 °F 34% 30.02 in 10.0 mi SW 20.7 mph 38.0 mph N/A   Clear
11:35 AM 88.7 °F 86.7 °F 54.5 °F 31% 30.01 in 10.0 mi SSW 31.1 mph 38.0 mph N/A   Clear
11:55 AM 89.2 °F 87.3 °F 54.5 °F 31% 30.00 in 10.0 mi SSW 25.3 mph 35.7 mph N/A   Clear
12:15 PM 90.7 °F 88.3 °F 53.8 °F 28% 29.99 in 10.0 mi SW 24.2 mph 32.2 mph N/A   Clear
12:35 PM 91.0 °F - 52.9 °F 27% 29.98 in 10.0 mi SW 27.6 mph 39.1 mph N/A   Clear
12:55 PM 91.6 °F 89.1 °F 53.6 °F 27% 29.97 in 10.0 mi SW 25.3 mph 38.0 mph N/A   Clear
1:15 PM 91.9 °F 89.8 °F 54.3 °F 28% 29.96 in 10.0 mi WSW 25.3 mph 36.8 mph N/A   Clear
1:35 PM 92.1 °F 90.0 °F 54.3 °F 28% 29.95 in 10.0 mi SSW 27.6 mph 35.7 mph N/A   Clear
1:55 PM 93.7 °F 91.7 °F 54.7 °F 27% 29.94 in 10.0 mi SW 23.0 mph 32.2 mph N/A   Clear
2:15 PM 94.1 °F 91.9 °F 54.3 °F 26% 29.93 in 10.0 mi SSW 24.2 mph 34.5 mph N/A   Clear
2:35 PM 93.4 °F 91.0 °F 53.8 °F 26% 29.92 in 10.0 mi SW 27.6 mph 35.7 mph N/A   Scattered Clouds
3:15 PM 92.1 °F 89.7 °F 53.6 °F 27% 29.90 in 10.0 mi SSW 19.6 mph 31.1 mph N/A   Mostly Cloudy
3:35 PM 92.1 °F 89.7 °F 53.8 °F 27% 29.90 in 10.0 mi SSW 21.9 mph 29.9 mph N/A   Overcast
3:55 PM 91.4 °F 89.1 °F 54.1 °F 28% 29.90 in 10.0 mi SW 15.0 mph 28.8 mph N/A   Overcast
4:15 PM 91.6 °F 89.6 °F 54.7 °F 29% 29.88 in 10.0 mi SW 19.6 mph 29.9 mph N/A   Mostly Cloudy
4:35 PM 90.9 °F 88.7 °F 54.9 °F 29% 29.88 in 10.0 mi SW 23.0 mph 35.7 mph N/A   Overcast
4:55 PM 90.0 °F 88.1 °F 55.4 °F 31% 29.88 in 10.0 mi SW 17.3 mph 27.6 mph N/A   Overcast
5:15 PM 85.6 °F 85.7 °F 61.0 °F 43% 29.90 in 7.0 mi West 23.0 mph 39.1 mph N/A Rain Light Rain
5:35 PM 82.2 °F 83.8 °F 64.4 °F 55% 29.90 in 10.0 mi West 9.2 mph - N/A   Overcast
5:55 PM 80.6 °F 82.5 °F 65.7 °F 60% 29.91 in 10.0 mi West 10.4 mph - N/A   Overcast
6:15 PM 80.6 °F 82.7 °F 65.8 °F 61% 29.90 in 10.0 mi West 6.9 mph - N/A   Overcast
6:35 PM 80.2 °F 82.6 °F 67.3 °F 64% 29.90 in 5.0 mi WNW 12.7 mph 18.4 mph N/A Rain Heavy Rain
6:55 PM 77.4 °F - 69.6 °F 77% 29.91 in 10.0 mi West 6.9 mph - N/A   Overcast
7:15 PM 76.5 °F - 69.8 °F 80% 29.92 in 5.0 mi WSW 10.4 mph - N/A Rain Light Rain
7:35 PM 77.5 °F - 68.5 °F 74% 29.92 in 10.0 mi SSW 9.2 mph 18.4 mph N/A   Overcast
7:55 PM 76.5 °F - 68.4 °F 76% 29.92 in 10.0 mi SSW 11.5 mph - N/A   Overcast
8:15 PM 75.2 °F - 68.4 °F 79% 29.93 in 10.0 mi SSW 12.7 mph - N/A   Overcast
8:35 PM 74.5 °F - 68.7 °F 82% 29.93 in 3.0 mi SW 9.2 mph - N/A Rain Rain
8:55 PM 73.9 °F - 68.9 °F 84% 29.94 in 10.0 mi SSW 11.5 mph - N/A   Overcast
9:15 PM 73.8 °F - 68.9 °F 85% 29.94 in 10.0 mi SSW 9.2 mph - N/A   Overcast
9:35 PM 72.9 °F - 69.1 °F 88% 29.95 in 10.0 mi SSW 10.4 mph - N/A   Scattered Clouds
9:55 PM 72.7 °F - 69.3 °F 89% 29.95 in 7.0 mi SSW 9.2 mph - N/A   Clear
10:15 PM 72.3 °F - 69.1 °F 89% 29.96 in 7.0 mi SW 5.8 mph - N/A   Clear
10:35 PM 71.4 °F - 68.7 °F 91% 29.97 in 5.0 mi West 6.9 mph - N/A   Clear
10:55 PM 70.7 °F - 68.2 °F 92% 29.97 in 5.0 mi WSW 6.9 mph - N/A   Clear
11:15 PM 69.8 °F - 67.3 °F 92% 29.98 in 5.0 mi WSW 5.8 mph - N/A   Clear
11:35 PM 69.8 °F - 65.5 °F 86% 29.98 in 10.0 mi West 9.2 mph - N/A   Clear
11:55 PM 70.0 °F - 60.4 °F 72% 29.99 in 10.0 mi West 6.9 mph - N/A   Clear